FENGYUN 1C DEB

Satellite information

Favourite Embed

Satellite Type and Status

DEBRISIN ORBIT

Key statistics

Satellite FENGYUN 1C DEB at a glance.

Uptime

9555

Days in orbit

Revolutions

≈ 13.9

Per day

Orbit

SSO

Sun Synchronous Orbit

Inclination

98.6

Latest

Satellite identification and parameters

Extended collection of information and parameters for FENGYUN 1C DEB.

Object identification

Identified? True

Debris? True

Object name: FENGYUN 1C DEB

International designator: 1999-025CLC

Object number (NORAD): 31901

Object ID (CCSDS): 31901

Country: PEOPLES REPUBLIC OF CHINA (PRC)

Current information (Y/N): Y

RCS size: SMALL

Orbital parameters

Period: 103.298 minutes

Inclination: 98.5749 deg

SMA: 7292.68 km

Apoapsis: 1009.732 km

Periapsis: 819.357 km

RAAN: 158.0815 deg

Eccentricy: 0.0130525

Argument of periapsis: 276.343 deg

Mean anomaly: 82.2881 deg

Mean motion: 13.94029812 rev/day

Mean motion (dot): 0.00000048 rev/day2

B* drag term: 0.000062333 1/REarth

Two-line elements (TLE)

Creation date: July 5, 2025, 4:36 a.m.

Reference frame: TEME

Reference center: EARTH

Epoch: July 4, 2025, 3:49 p.m. UTC

TLE line 0: 0 FENGYUN 1C DEB

TLE line 1: 1 31901U 99025CLC 25185.65935313 .00000048 00000-0 62333-4 0 9998

TLE line 2: 2 31901 98.5749 158.0815 0130525 276.3430 82.2881 13.94029812611632

Live tracking on map

Real-time ground track for satellite FENGYUN 1C DEB.

In-orbit conjunctions

A list of the most updated potential collisions computed for object FENGYUN 1C DEB.

Target Orbit TCA Probability of collision Miss distance Type
SL-3 R/B LEO 2024-11-14 00:09:37 0.001057851 980.0 (m) ROCKET BODY
FENGYUN 1C DEB SSO 2024-09-25 19:55:07 0.000100858 951.0 (m) DEBRIS

Associated space launch

Chinese polar orbiting meteorological satellite

FENGYUN 1C DEB was lifted into orbit during the mission ‘Long March 4B | Feng Yun 1C’, on board a Long March 4B space rocket.

The launch took place on May 10, 1999, 1:33 a.m. from Launch Complex 7.

For more information about the launch, click the button.

Launch to space Long March 4B | Feng Yun 1C
Long March 4B | Feng Yun 1C

Agency: N/A

Status: Launch Successful

Launch date: May 10, 1999, 1:33 a.m. UTC

Rocket: Long March 4B

Launch pad: Launch Complex 7

Location: Taiyuan Satellite Launch Center, People's Republic of China

...

Latest news about this satellite

There are no fresh news available about this satellite. Check back as we update our databases every day.


Newsletter sign-up

Weekly statistics, charts and insights to help you stay on top of the space industry.